This is the latest recevied weather packets stored in our database for station/object KD8OZS. If no packets are shown the sender has not sent any weather packets the latest 10 day(s).
| Time | Temp. | Humidity | Pressure | Rain* | Wind** | Luminosity | Snow |
|---|---|---|---|---|---|---|---|
| 1778119633 | 8.33° C | 79% | 1006.4 hPa | 0 mm | - | 0 W/m² | - |
| 1778119328 | 8.33° C | 80% | 1006.4 hPa | 0 mm | - | 0 W/m² | - |
| 1778119026 | 8.89° C | 82% | 1006.4 hPa | 0 mm | - | 0 W/m² | - |
| 1778118724 | 8.89° C | 80% | 1006.4 hPa | 0 mm | - | 0 W/m² | - |
| 1778118420 | 8.89° C | 81% | 1006.5 hPa | 0 mm | - | 0 W/m² | - |
| 1778118116 | 8.89° C | 82% | 1006.2 hPa | 0 mm | - | 0 W/m² | - |
| 1778117813 | 8.89° C | 78% | 1006 hPa | 0 mm | - | 0 W/m² | - |
| 1778117510 | 8.89° C | 78% | 1006.3 hPa | 0 mm | - | 0 W/m² | - |
| 1778117208 | 8.89° C | 77% | 1006 hPa | 0 mm | - | 0 W/m² | - |
| 1778116903 | 9.44° C | 78% | 1006 hPa | 0 mm | - | 0 W/m² | - |
| 1778116602 | 9.44° C | 75% | 1006 hPa | 0 mm | - | 0 W/m² | - |
| 1778116297 | 9.44° C | 73% | 1005.9 hPa | 0 mm | - | 0 W/m² | - |
| 1778115992 | 9.44° C | 73% | 1005.7 hPa | 0 mm | - | 0 W/m² | - |
| 1778115688 | 9.44° C | 69% | 1005.6 hPa | 0 mm | - | 0 W/m² | - |
| 1778115386 | 10° C | 70% | 1005.9 hPa | 0 mm | - | 0 W/m² | - |
| 1778115082 | 10° C | 66% | 1005.7 hPa | 0 mm | - | 0 W/m² | - |
| 1778114779 | 10° C | 65% | 1005.6 hPa | 0 mm | - | 0 W/m² | - |
| 1778114476 | 10.56° C | 63% | 1005.6 hPa | 0 mm | - | 0 W/m² | - |
| 1778114172 | 10.56° C | 64% | 1005.4 hPa | 0 mm | - | 0 W/m² | - |
| 1778113867 | 10.56° C | 63% | 1005.5 hPa | 0 mm | - | 0 W/m² | - |
| 1778113564 | 10° C | 63% | 1005.6 hPa | 0 mm | - | 1 W/m² | - |
| 1778113260 | 10.56° C | 71% | 1005.4 hPa | 0 mm | - | 3 W/m² | - |
| 1778112957 | 10.56° C | 70% | 1005.2 hPa | 0 mm | - | 5 W/m² | - |
| 1778112654 | 10.56° C | 70% | 1005.3 hPa | 0 mm | - | 7 W/m² | - |
| 1778112350 | 10.56° C | 67% | 1005.3 hPa | 0 mm | - | 7 W/m² | - |
* Rain latest hour (hover to see other rain measurements)
** Current wind speed in m/s (hover to see current wind gust speed)